Oak Island, MN

5:36 AM CST on February 08, 2016 (GMT -0600)
Flag Island

Weather History for KFGN - December, 2013

Change the Weather History Date:

Sunday, December 22, 2013

  Actual Average Record
Temperature  
Mean Temperature -6 °F -  
Max Temperature -2 °F 12 °F 35 °F (2005)
Min Temperature -11 °F 0 °F -27 °F (2000)
Degree Days  
Heating Degree Days 72    
Moisture  
Dew Point -16 °F    
Average Humidity 70    
Maximum Humidity 77    
Minimum Humidity 55    
Precipitation  
Precipitation 0.00 in - - ()
Sea Level Pressure  
Sea Level Pressure 30.23 in    
Wind  
Wind Speed 11 mph (North)    
Max Wind Speed 16 mph    
Max Gust Speed -    
Visibility 10 miles    
Events      
Averages and records for this station are not official NWS values.
T = Trace of Precipitation, MM = Missing Value Source: NWS Daily Summary

Daily Weather History Graph

Daily Weather History Graph

Search for Another Location

Airport or City:

Trip Planner

Search our weather history database for the weather conditions in past years. The results will help you decide how hot, cold, wet, or windy it might be!

Date:

Astronomy

Dec. 22, 2013 Rise Set
Actual Time 8:13 AM CST 4:23 PM CST
Civil Twilight 7:35 AM CST 5:01 PM CST
Nautical Twilight 6:54 AM CST 5:42 PM CST
Astronomical Twilight 6:15 AM CST 6:21 PM CST
Moon 10:03 PM CST (12/22) 10:45 AM CST (12/22)
Length of Visible Light 9h 26m
Length of Day
8h 10m
Waning Gibbous, 76% of the Moon is Illuminated
Dec 22
Waning Gibbous
Dec 25
Last Quarter
Jan 1
New
Jan 7
First Quarter
Jan 15
Full

Hourly Weather History & Observations

Time (CST) Temp. Windchill Dew Point Humidity Pressure Visibility Wind Dir Wind Speed Gust Speed Precip Events Conditions
12:14 AM -7.6 °F -24.6 °F -14.8 °F 71% 30.16 in 10.0 mi North 9.2 mph - N/A   Clear
12:33 AM -9.4 °F -26.8 °F -14.8 °F 77% 30.16 in 10.0 mi North 9.2 mph - N/A   Clear
12:53 AM -9.4 °F -27.9 °F -14.8 °F 77% 30.16 in 10.0 mi North 10.4 mph - N/A   Clear
1:14 AM -9.4 °F -25.6 °F -14.8 °F 77% 30.16 in 10.0 mi NNE 8.1 mph - N/A   Clear
1:33 AM -9.4 °F -28.9 °F -14.8 °F 77% 30.15 in 10.0 mi NNE 11.5 mph - N/A   Clear
1:53 AM -9.4 °F -27.9 °F -14.8 °F 77% 30.15 in 10.0 mi North 10.4 mph - N/A   Clear
2:14 AM -9.4 °F -27.9 °F -14.8 °F 77% 30.16 in 10.0 mi NNE 10.4 mph - N/A   Clear
2:33 AM -9.4 °F -28.9 °F -14.8 °F 77% 30.16 in 10.0 mi NNE 11.5 mph - N/A   Scattered Clouds
2:53 AM -9.4 °F -27.9 °F -14.8 °F 77% 30.16 in 10.0 mi North 10.4 mph - N/A   Clear
3:14 AM -9.4 °F -26.8 °F -14.8 °F 77% 30.16 in 10.0 mi North 9.2 mph - N/A   Clear
3:33 AM -9.4 °F -27.9 °F -14.8 °F 77% 30.16 in 10.0 mi North 10.4 mph - N/A   Clear
3:53 AM -9.4 °F -27.9 °F -14.8 °F 77% 30.17 in 10.0 mi North 10.4 mph - N/A   Clear
4:14 AM -9.4 °F -26.8 °F -14.8 °F 77% 30.16 in 10.0 mi North 9.2 mph - N/A   Clear
4:33 AM -9.4 °F -29.8 °F -14.8 °F 77% 30.17 in 10.0 mi North 12.7 mph - N/A   Scattered Clouds
4:53 AM -9.4 °F -28.9 °F -14.8 °F 77% 30.17 in 10.0 mi North 11.5 mph - N/A   Mostly Cloudy
5:14 AM -9.4 °F -30.6 °F -14.8 °F 77% 30.17 in 10.0 mi NNE 13.8 mph - N/A   Overcast
5:33 AM -9.4 °F -29.8 °F -16.6 °F 71% 30.17 in 10.0 mi NNE 12.7 mph - N/A   Overcast
5:53 AM -9.4 °F -27.9 °F -16.6 °F 71% 30.17 in 10.0 mi NNE 10.4 mph - N/A   Overcast
6:13 AM -9.4 °F -26.8 °F -16.6 °F 71% 30.18 in 10.0 mi NNE 9.2 mph - N/A   Overcast
6:33 AM -9.4 °F -27.9 °F -16.6 °F 71% 30.18 in 10.0 mi NNE 10.4 mph - N/A   Overcast
6:53 AM -9.4 °F -27.9 °F -16.6 °F 71% 30.18 in 10.0 mi North 10.4 mph - N/A   Mostly Cloudy
7:13 AM -9.4 °F -28.9 °F -16.6 °F 71% 30.19 in 10.0 mi North 11.5 mph - N/A   Scattered Clouds
7:33 AM -9.4 °F -28.9 °F -16.6 °F 71% 30.19 in 10.0 mi North 11.5 mph - N/A   Scattered Clouds
7:53 AM -11.2 °F -30.1 °F -16.6 °F 77% 30.19 in 10.0 mi North 10.4 mph - N/A   Scattered Clouds
8:13 AM -11.2 °F -30.1 °F -16.6 °F 77% 30.18 in 10.0 mi North 10.4 mph - N/A   Scattered Clouds
8:33 AM -11.2 °F -29.0 °F -16.6 °F 77% 30.19 in 10.0 mi North 9.2 mph - N/A   Scattered Clouds
8:53 AM -11.2 °F -29.0 °F -16.6 °F 77% 30.19 in 10.0 mi North 9.2 mph - N/A   Scattered Clouds
9:13 AM -11.2 °F -30.1 °F -16.6 °F 77% 30.20 in 10.0 mi North 10.4 mph - N/A   Scattered Clouds
9:33 AM -11.2 °F -30.1 °F -18.4 °F 70% 30.21 in 10.0 mi North 10.4 mph - N/A   Scattered Clouds
9:53 AM -11.2 °F -30.1 °F -18.4 °F 70% 30.21 in 10.0 mi North 10.4 mph - N/A   Scattered Clouds
10:13 AM -11.2 °F -30.1 °F -18.4 °F 70% 30.21 in 10.0 mi North 10.4 mph - N/A   Scattered Clouds
10:33 AM -9.4 °F -28.9 °F -18.4 °F 65% 30.21 in 10.0 mi North 11.5 mph - N/A   Clear
10:53 AM -9.4 °F -28.9 °F -18.4 °F 65% 30.21 in 10.0 mi North 11.5 mph - N/A   Clear
11:13 AM -9.4 °F -27.9 °F -16.6 °F 71% 30.21 in 10.0 mi North 10.4 mph - N/A   Clear
11:27 AM -9.4 °F -27.9 °F -16.6 °F 71% 30.20 in 10.0 mi North 10.4 mph - N/A   Clear
1:01 PM -5.8 °F -24.4 °F -14.8 °F 65% 30.19 in 10.0 mi North 11.5 mph - N/A   Clear
1:21 PM -5.8 °F -26.0 °F -14.8 °F 65% 30.20 in 10.0 mi North 13.8 mph - N/A   Clear
1:41 PM -5.8 °F -23.4 °F -14.8 °F 65% 30.20 in 10.0 mi North 10.4 mph - N/A   Clear
2:41 PM -4.0 °F -21.2 °F -14.8 °F 60% 30.21 in 10.0 mi North 10.4 mph - N/A   Clear
3:06 PM -4.0 °F -21.2 °F -14.8 °F 60% 30.22 in 10.0 mi North 10.4 mph - N/A   Scattered Clouds
3:13 PM -2.2 °F -21.5 °F -14.8 °F 55% 30.22 in 10.0 mi North 13.8 mph - N/A   Clear
3:34 PM -2.2 °F -18.9 °F -14.8 °F 55% 30.23 in 10.0 mi North 10.4 mph - N/A   Scattered Clouds
3:53 PM -2.2 °F -20.7 °F -14.8 °F 55% 30.24 in 10.0 mi North 12.7 mph - N/A   Scattered Clouds
4:13 PM -2.2 °F -20.7 °F -14.8 °F 55% 30.25 in 10.0 mi North 12.7 mph - N/A   Mostly Cloudy
4:34 PM -4.0 °F -22.1 °F -14.8 °F 60% 30.26 in 10.0 mi North 11.5 mph - N/A   Scattered Clouds
4:53 PM -4.0 °F -23.7 °F -14.8 °F 60% 30.27 in 10.0 mi North 13.8 mph - N/A   Mostly Cloudy
5:13 PM -4.0 °F -23.0 °F -14.8 °F 60% 30.28 in 10.0 mi North 12.7 mph - N/A   Overcast
5:34 PM -5.8 °F -26.8 °F -14.8 °F 65% 30.29 in 10.0 mi North 15.0 mph - N/A   Overcast
5:53 PM -5.8 °F -27.5 °F -14.8 °F 65% 30.29 in 10.0 mi North 16.1 mph - N/A   Overcast
6:13 PM -5.8 °F -27.5 °F -14.8 °F 65% 30.30 in 10.0 mi North 16.1 mph - N/A   Overcast
6:34 PM -5.8 °F -27.5 °F -14.8 °F 65% 30.31 in 10.0 mi North 16.1 mph - N/A   Overcast
6:53 PM -5.8 °F -26.0 °F -14.8 °F 65% 30.31 in 10.0 mi North 13.8 mph - N/A   Overcast
7:13 PM -5.8 °F -25.2 °F -14.8 °F 65% 30.32 in 10.0 mi North 12.7 mph - N/A   Overcast
7:34 PM -7.6 °F -25.7 °F -14.8 °F 71% 30.32 in 10.0 mi North 10.4 mph - N/A   Overcast
7:53 PM -7.6 °F -25.7 °F -16.6 °F 65% 30.33 in 10.0 mi North 10.4 mph - N/A   Scattered Clouds
8:13 PM -7.6 °F -25.7 °F -16.6 °F 65% 30.33 in 10.0 mi North 10.4 mph - N/A   Clear
8:34 PM -7.6 °F -24.6 °F -16.6 °F 65% 30.33 in 10.0 mi North 9.2 mph - N/A   Clear
8:53 PM -9.4 °F -25.6 °F -16.6 °F 71% 30.34 in 10.0 mi North 8.1 mph - N/A   Clear
9:13 PM -9.4 °F -25.6 °F -16.6 °F 71% 30.34 in 10.0 mi North 8.1 mph - N/A   Clear
9:33 PM -9.4 °F -26.8 °F -16.6 °F 71% 30.34 in 10.0 mi North 9.2 mph - N/A   Clear
9:53 PM -9.4 °F -26.8 °F -16.6 °F 71% 30.35 in 10.0 mi North 9.2 mph - N/A   Clear
10:14 PM -9.4 °F -26.8 °F -16.6 °F 71% 30.35 in 10.0 mi North 9.2 mph - N/A   Clear
10:33 PM -9.4 °F -26.8 °F -16.6 °F 71% 30.35 in 10.0 mi North 9.2 mph - N/A   Clear
10:53 PM -9.4 °F -26.8 °F -16.6 °F 71% 30.36 in 10.0 mi North 9.2 mph - N/A   Clear
11:14 PM -11.2 °F -27.8 °F -18.4 °F 70% 30.37 in 10.0 mi NNW 8.1 mph - N/A   Clear
11:33 PM -11.2 °F -26.4 °F -18.4 °F 70% 30.37 in 10.0 mi NNW 6.9 mph - N/A   Clear
11:53 PM -11.2 °F -27.8 °F -18.4 °F 70% 30.37 in 10.0 mi North 8.1 mph - N/A   Clear